Погода Купино

Погода Купино : погода сейчас, прогноз погоды и архив. Всё, что Вы хотите узнать о погоде Купино!

Хотите узнать прогноз погоды Купино? Тогда Вам сюда: Погода Купино

Поиск расширенной информации на нашем сайте:

Другие новости

Новости СМИ2

Главная страница сайта

Новости сайта

02.10.2013

Напоминаем, что на нашем новом сайте вы можете получить высокодетализированные прогнозы погоды по пунктам России, СНГ и мира (включающие важные для авиации метеовеличины, такие как направление и скорость ветра, видимость, явления погоды, количество и форма облачности, нижняя и верхняя граница облачности), а также ознакомиться с разнообразными материалами по авиационной метеорологии и подборкой полезных ссылок на эту тему.

Сайт Метеоцентр.Азия посвящён разработке технологий оптимизации авиаметеорологического обслуживания, включая проектирование и перспективное создание нескольких автоматизированных авиаметеорологических систем:
- система выпуска высокодетальных прогностических карт явлений погоды для нижнего воздушного пространства по России и ближнему зарубежью;
- система верификации прогнозов TAF (выпускаемых синоптиками официальных АМСГ РФ и ближнего зарубежья) и AUTOTAF (выпускаемых сайтом Метеоцентр.Азия) - выявление ошибок, онлайн-сопоставление с фактической погодой METAR, автоматическое внесение коррективов в прогнозы при резком отклонении фактической погоды от прогноза, подсчёт оправдываемости прогнозов по элементам и в целом;
- система обработки, анализа и отображения авиаметеорологической информации для применения провайдерами метеорологической информации.


Погода Купино - сегодня

Время (UTC), дата Ветер
(°,м/с) 
Видим.   Явления Облачность Т
(°С)
Тd
(°С)
f(%) Тe
(°С)
Pmin
(гПа)
dP
(гПа)
Po
(мм)
O2
(г/м3)
Тmin Tmax R s Состояние
почвы
00 18.01.17 170 (Ю) 2000 м  дымка  10/0 верхняя 
[Ci sp]
-21.6 -24.2 79 -22  1038.8  -0.2  767  337  -24.1      25  неравномерный
сухой снег
100% 
03 18.01.17 210 (ЮЗ) 1000 м  дымка  10/0 верхняя 
[Cs]
-23.2 -25.9 78 -24  1038.9  767  340           
06 18.01.17 190 (Ю) 20000 м    4/0 верхняя 
[Ci fib]
-19.4 -21.7 82 -20  1038.2  -0.4  767  334           
09 18.01.17 200 (Ю) 20000 м    ясно 
-18.9 -20.9 84 -22  1037.8  -0.4  766  333           
12 18.01.17 190 (Ю) 20000 м    3/0 верхняя 
[Ci fib]
-23.4 -26.2 78 -24  1038.3  0.2  767  340    -18.4       
15 18.01.17 200 (Ю) 20000 м    ясно 
-24.9 -27.8 77 -28  1037.9  -0.5  766  342           
18 18.01.17 210 (ЮЗ) 20000 м    3/0 верхняя 
[Ci fib]
-24.6 -27.5 77 -28  1037.5  -0.4  766  341           
21 18.01.17 200 (Ю) 20000 м    3/0 верхняя 
[Ci fib]
-25 -28 76 -26  1036.8  -0.7  765  341           
00 19.01.17 190 (Ю) 20000 м    3/0 верхняя 
[Ci fib]
-25.8 -28.9 75 -29  1036.2  -0.6  765  342  -25.9      25  неравномерный
сухой снег
100% 
03 19.01.17 170 (Ю) 4000 м  дымка  10/0 средняя 
[As op]
-25.6 -28.6 76 -26  1036.2  765  342  -25.9         
06 19.01.17 180 (Ю) 20000 м    4/0 верхняя 
[Ci fib]
-23.1 -25.8 78 -26  1035.9  -0.1  765  338           
09 19.01.17 170 (Ю) 20000 м    6/0 верхняя 
[Ci fib]
-21.4 -24 80 -24  1035.1  -0.7  764  336           
12 19.01.17 140 (ЮВ) 20000 м    8/0 верхняя 
[Ci fib]
-23.8 -26.6 78 -27  1034.5  -0.8  764  339    -21.1       
15 19.01.17 150 (ЮВ) 4000 м  дымка  10/0 средняя 
[As op]
-19.3 -21.7 81 -24  1032.6  -1.6  763  332           
18 19.01.17 150 (ЮВ) 20000 м    ясно 
-21.6 -24.3 79 -26  1031  -1.6  761  335           
21 19.01.17 150 (ЮВ) 20000 м    ясно 
-22.1 -24.7 79 -25  1028.7  -2.4  760  335           
00 20.01.17 180 (Ю) 20000 м    10/0 верхняя 
[Cs]
-20.7 -23.2 80 -25  1026.7  -1.8  758  332  -23.9      25  неравномерный
сухой снег
100% 
03 20.01.17 170 (Ю) 4000 м  дымка  9/9 1000 м 
[Sc]
-20.2 -22.6 81 -25  1024.8  -1.8  757  331           
06 20.01.17 180 (Ю) 20000 м  {снег}  10/0 средняя 
[As op]
-16.9 -18.9 84 -22  1024.1  -0.6  756  326           
09 20.01.17 180 (Ю) 20000 м  в посл. час ливневой снег  5/3 1000 м средняя, верхняя 
[Sc|Ac trans|Ci fib]
-14.5 -16.5 85 -19  1021.9  -2  755  323           
12 20.01.17 200 (Ю) 20000 м  {ливн. осадки}  10/3 1000 м верхняя 
[Sc|Ci fib]
-14.2 -16 86 -19  1020.6  -1.3  754  322    -13.5  0.5     
15 20.01.17 220 (ЮЗ) 20000 м    10/0 верхняя 
[Ci fib]
-15.1 -17.2 84 -20  1019.9  -0.7  753  323           
18 20.01.17 200 (Ю) 20000 м    10/0 верхняя 
[Ci fib]
-16.9 -19 84 -23  1018.8  -1.2  752  325           
21 20.01.17 200 (Ю) 20000 м    10/10 600 м 
[Sc]
-14.1 -16.6 81 -20  1016.6  -2  751  320           
00 21.01.17 220 (ЮЗ) 6{10}  20000 м  позёмок  10/10 600 м 
[Sc]
-12.3 -14.6 83 -18  1015.1  -1.4  750  318  -16.9      26  неравномерный
сухой снег
100% 
Время (UTC), дата Ветер
(°,м/с) 
Видим.   Явления Облачность Т
(°С)
Тd
(°С)
f(%) Тe
(°С)
Pmin
(гПа)
dP
(гПа)
Po
(мм)
O2
(г/м3)
Тmin Tmax R s Состояние
почвы

Для получения пояснительной информации подведите курсор к названию столбца.

ПОГОДА Купино - архив

Всё, что Вы хотите узнать о погоде Купино - удобно и подробно!

Выберите нужную дату (начиная с 1 января 2015* года) и нажмите кнопку "Найти".
Будут отображены архивные сводки погоды по пункту Купино, начиная с указанной даты.


Отображать данные в формате CSV (для использования в таблицах Excel)


Внимание! Наш архив погоды предназначен исключительно для личного некоммерческого использования в познавательных целях. Если Вам необходимы официальные справки о состоянии погоды (для производственных, юридических, коммерческих и т.п. целей), обращайтесь в органы Росгидромета.

*Примечание: данная дата относится к архиву по метеостанциям СССР (Россия, СНГ, Балтия).
Архив по метеостанциям Зарубежной Европы и Азии (кроме Китая) хранится 10 дней, по другим регионам земного шара (Китай, Африка, Америка, Австралия, Океания) - 1 день.

Купино - район местоположения метеостанции


Название, широта, долгота, высота метеостанции:
Купино 54.4°ш. 77.3°д. 115 м над ур. моря [Российская Федерация]

Дополнительная информация

В oтличие oт бoльшинства пoгoдных сайтoв мы публикуем пoдрoбную метеoинфoрмацию в детальнoм прoфессиoнальнoм фoрмате.

Характеристики температуры и влажнoсти вoздуха измеряются на высoте 2 м в тени вдали oт зданий и деревьев.
Скoрoсть ветра измеряется на высoте 10 м (на урoвне рoста челoвека скoрoсть ветра ниже в 1.5-2 раза). Если метеoстанция нахoдится в гoрoде или в лесу, тo скoрoсть ветра занижена на 2-4 м/с пo сравнению с oткрытым местoм. Скoрoсть ветра над акватoриями крупных рек и oзёр, а также на вершинах хoлмoв на 2-5 м/с выше, чем в oбычных услoвиях.
Атмoсфернoе давление в разных тoчках местнoсти мoжет значительнo oтличаться oт давления на метеoстанции, в зависимoсти oт услoвий рельефа (при пoдъёме на 10 м давление пoнижается примернo на 1 мм рт.ст.).